Flag for Venezuela Weather past 2 weeks in Valencia, Venezuela

Now
77 °F

Passing clouds.


Feels Like: 79 °F
Forecast: 69 / 91 °F
Wind: 5 mph from East

Location: Valencia Airport

Current Time: Feb 27, 2015 at 3:03:19 AM

Latest Report: Feb 27, 2015 at 1:30 AM


Visibility: N/A

Pressure: 29.98 "Hg

Humidity: 74%

Dew point: 68 °F

Location of ValenciaLocation

Historic Weather in Valencia — Graph

°F

Valencia temperature yesterday

Maximum temperature yesterday: 95 °F (at 2:30 PM)
Minimum temperature yesterday: 75 °F (at 5:30 AM)
Average temperature yesterday: 85 °F

Past Weeks' High & Low Weather Summary

 TemperatureHumidityPressure
High97 °F (Feb 14, 2:30 PM)89% (Feb 13, 6:30 AM)30.07 "Hg (Feb 13, 6:30 AM)
Low73 °F (Feb 17, 6:30 AM)32% (Feb 15, 2:30 PM)29.83 "Hg (Feb 19, 4:30 PM)
Average84 °F59%29.96 "Hg
* Reported Feb 12 6:30 AM — Feb 27 1:30 AM, Valencia, Weather by CustomWeather, © 2015

Note: Actual official high and low records may vary slightly from our data, if they occured in-between our weather recording intervals... More about our weather records

Advertising

Valencia weather history for previous 24 hours

 ConditionsComfort  
Time TempWeatherWind HumidityBarometerVisibility
1:30 AM
Fri, Feb 27
77 °FPassing clouds.5 mph74%29.98 "HgN/A
9:30 PM
Thu, Feb 26
81 °FSmoke.7 mph66%29.95 "HgN/A
8:30 PM81 °FSmoke.5 mph70%29.92 "HgN/A
7:30 PM82 °FSmoke.7 mph66%29.89 "HgN/A
6:30 PM84 °FPassing clouds.8 mph62%29.86 "HgN/A
5:30 PM90 °FPartly sunny.7 mph52%29.86 "HgN/A
4:30 PM93 °FScattered clouds.3 mph47%29.86 "HgN/A
3:30 PM93 °FPartly sunny.7 mph47%29.89 "HgN/A
2:30 PM95 °FPartly sunny.5 mph44%29.92 "HgN/A
1:30 PM93 °FScattered clouds.3 mph49%29.95 "HgN/A
12:30 PM91 °FScattered clouds.6 mph49%29.98 "HgN/A
11:30 AM88 °FScattered clouds.7 mph55%30.01 "HgN/A
10:30 AM86 °FScattered clouds.7 mph59%30.01 "HgN/A
9:30 AM82 °FPassing clouds.6 mph66%30.01 "HgN/A
8:30 AM81 °FPassing clouds.10 mph66%30.01 "HgN/A
7:30 AM79 °FPassing clouds.9 mph70%29.98 "HgN/A
6:30 AM77 °FPassing clouds.6 mph69%29.98 "HgN/A
5:30 AM75 °FClear.5 mph74%29.95 "Hg10 mi
Weather by CustomWeather, © 2015

See weather overviewHow to use our weather pages